{"data":{"norad_id":60360,"intl_designator":"2024-138F","name":"STARLINK-32275","alt_names":[],"object_type":"PAYLOAD","status":"ACTIVE","operator":null,"country":"US","launch_date":"2024-08-04","launch_site_code":"AFWTR","launch_vehicle":null,"mission":null,"orbit_class":"UNKNOWN","rcs_meters":null,"size_class":null,"mass_kg":null,"dimensions":null,"purposes":["comms"],"wikipedia_slug":null,"has_3d_model":false,"image_url":null,"decayed_at":null,"tle_current":{"epoch":"2026-05-25T04:29:16.393920Z","epoch_age_seconds":65699,"freshness":"FRESH","line1":"1 60360U 24138F   26145.18699530  .00000825  00000+0  38349-4 0  9997","line2":"2 60360  53.1595 314.0014 0001254  95.1909 264.9236 15.31702508102347","mean_motion":15.31702508,"eccentricity":0.0001254,"inclination_deg":53.1595,"raan_deg":314.0014,"arg_perigee_deg":95.1909,"mean_anomaly_deg":264.9236,"bstar":3.8349e-5,"rev_number":10234,"period_min":94.01303402449,"perigee_km":469.87367078067,"apogee_km":471.59136725604,"semimajor_km":6848.8695190184,"source":"CELESTRAK","updated_at":"2026-05-25T13:38:19.238603Z"}}}